Cadillac, MI

5:46 AM EDT on March 23, 2017 (GMT -0400)
Wexford County

Weather History for KCAD - May, 2013

Change the Weather History Date:

Saturday, May 18, 2013

  Actual Average Record
Temperature  
Mean Temperature 62 °F -  
Max Temperature 74 °F 67 °F 87 °F (1962)
Min Temperature 51 °F 41 °F 21 °F (1973)
Degree Days  
Heating Degree Days 2    
Growing Degree Days 12 (Base 50)    
Moisture  
Dew Point 43 °F    
Average Humidity 55    
Maximum Humidity 77    
Minimum Humidity 32    
Precipitation  
Precipitation 0.00 in - - ()
Sea Level Pressure  
Sea Level Pressure 30.10 in    
Wind  
Wind Speed 7 mph (ESE)    
Max Wind Speed 18 mph    
Max Gust Speed 23 mph    
Visibility 10 miles    
Events      
Averages and records for this station are not official NWS values.
T = Trace of Precipitation, MM = Missing Value Source: NWS Daily Summary

Daily Weather History Graph

Daily Weather History Graph

Search for Another Location

Airport or City:

Trip Planner

Search our weather history database for the weather conditions in past years. The results will help you decide how hot, cold, wet, or windy it might be!

Date:

Astronomy

May. 18, 2013 Rise Set
Actual Time 6:11 AM EDT 9:05 PM EDT
Civil Twilight 5:37 AM EDT 9:39 PM EDT
Nautical Twilight 4:54 AM EDT 10:23 PM EDT
Astronomical Twilight 4:03 AM EDT 11:14 PM EDT
Moon 1:53 PM EDT (5/18) 2:19 AM EDT (5/18)
Length of Visible Light 16h 02m
Length of Day
14h 54m
First Quarter, 55% of the Moon is Illuminated
May 18
First Quarter
May 25
Full
May 31
Last Quarter
Jun 8
New
Jun 16
First Quarter

Hourly Weather History & Observations

Time (EDT) Temp. Dew Point Humidity Pressure Visibility Wind Dir Wind Speed Gust Speed Precip Events Conditions
12:15 AM 51.4 °F 44.2 °F 76% 30.15 in 10.0 mi East 6.9 mph - N/A   Overcast
12:34 AM 51.4 °F 43.9 °F 75% 30.16 in 10.0 mi ESE 4.6 mph - N/A   Overcast
12:55 AM 51.4 °F 43.9 °F 75% 30.16 in 10.0 mi ESE 5.8 mph - N/A   Overcast
1:15 AM 51.4 °F 43.9 °F 75% 30.15 in 10.0 mi ESE 6.9 mph - N/A   Overcast
1:34 AM 51.4 °F 43.7 °F 75% 30.15 in 10.0 mi East 4.6 mph - N/A   Overcast
1:55 AM 51.4 °F 43.0 °F 73% 30.15 in 10.0 mi ESE 3.5 mph - N/A   Overcast
2:15 AM 51.4 °F 43.5 °F 74% 30.14 in 10.0 mi East 3.5 mph - N/A   Overcast
2:34 AM 51.4 °F 43.3 °F 74% 30.13 in 10.0 mi East 5.8 mph - N/A   Overcast
2:55 AM 51.4 °F 42.6 °F 72% 30.13 in 10.0 mi East 5.8 mph - N/A   Overcast
3:15 AM 51.4 °F 43.5 °F 74% 30.13 in 10.0 mi East 5.8 mph - N/A   Overcast
3:34 AM 51.4 °F 42.3 °F 71% 30.13 in 10.0 mi East 4.6 mph - N/A   Overcast
3:55 AM 51.4 °F 42.3 °F 71% 30.13 in 10.0 mi East 5.8 mph - N/A   Overcast
4:15 AM 51.4 °F 42.3 °F 71% 30.13 in 10.0 mi East 5.8 mph - N/A   Overcast
4:34 AM 51.4 °F 42.1 °F 70% 30.13 in 10.0 mi East 6.9 mph - N/A   Overcast
4:55 AM 51.4 °F 42.3 °F 71% 30.14 in 10.0 mi ENE 3.5 mph - N/A   Overcast
5:15 AM 51.4 °F 42.6 °F 72% 30.15 in 10.0 mi Calm Calm - N/A   Overcast
5:35 AM 51.4 °F 43.3 °F 74% 30.13 in 10.0 mi ESE 4.6 mph - N/A   Overcast
5:55 AM 51.4 °F 42.1 °F 70% 30.14 in 10.0 mi ESE 4.6 mph - N/A   Overcast
6:15 AM 51.4 °F 42.8 °F 72% 30.14 in 10.0 mi SSE 3.5 mph - N/A   Overcast
6:35 AM 51.4 °F 42.6 °F 72% 30.15 in 10.0 mi ESE 3.5 mph - N/A   Overcast
6:55 AM 51.4 °F 42.4 °F 71% 30.15 in 10.0 mi Calm Calm - N/A   Overcast
7:15 AM 51.4 °F 42.3 °F 71% 30.15 in 10.0 mi ENE 4.6 mph - N/A   Overcast
7:35 AM 51.4 °F 42.8 °F 72% 30.16 in 10.0 mi East 5.8 mph - N/A   Overcast
7:55 AM 51.4 °F 43.5 °F 74% 30.16 in 10.0 mi East 3.5 mph - N/A   Overcast
8:15 AM 51.4 °F 44.4 °F 77% 30.16 in 10.0 mi East 4.6 mph - N/A   Overcast
8:35 AM 51.4 °F 44.1 °F 76% 30.16 in 10.0 mi East 4.6 mph - N/A   Overcast
8:55 AM 52.7 °F 43.7 °F 71% 30.17 in 10.0 mi ESE 4.6 mph - N/A   Overcast
9:15 AM 53.2 °F 43.7 °F 70% 30.17 in 10.0 mi East 5.8 mph - N/A   Overcast
9:35 AM 54.0 °F 43.5 °F 68% 30.16 in 10.0 mi East 4.6 mph - N/A   Overcast
9:55 AM 56.5 °F 44.8 °F 65% 30.16 in 10.0 mi ESE 6.9 mph - N/A   Overcast
10:15 AM 56.5 °F 43.9 °F 63% 30.15 in 10.0 mi East 9.2 mph - N/A   Overcast
10:35 AM 59.0 °F 44.8 °F 59% 30.14 in 10.0 mi ESE 8.1 mph - N/A   Overcast
10:55 AM 61.7 °F 44.4 °F 53% 30.13 in 10.0 mi ESE 8.1 mph - N/A   Overcast
11:14 AM 61.7 °F 43.7 °F 52% 30.14 in 10.0 mi ESE 8.1 mph - N/A   Overcast
11:35 AM 61.7 °F 42.4 °F 49% 30.13 in 10.0 mi ESE 8.1 mph - N/A   Overcast
11:55 AM 62.8 °F 42.8 °F 48% 30.13 in 10.0 mi ESE 11.5 mph - N/A   Overcast
12:14 PM 63.9 °F 42.4 °F 46% 30.12 in 10.0 mi ESE 11.5 mph - N/A   Overcast
12:35 PM 64.9 °F 42.1 °F 43% 30.13 in 10.0 mi East 12.7 mph 17.3 mph N/A   Overcast
12:55 PM 66.6 °F 42.8 °F 42% 30.11 in 10.0 mi East 12.7 mph 17.3 mph N/A   Mostly Cloudy
1:14 PM 69.1 °F 43.0 °F 39% 30.11 in 10.0 mi ESE 11.5 mph - N/A   Mostly Cloudy
1:35 PM 68.9 °F 43.0 °F 39% 30.10 in 10.0 mi East 12.7 mph 19.6 mph N/A   Mostly Cloudy
1:55 PM 71.6 °F 41.4 °F 33% 30.10 in 10.0 mi ESE 18.4 mph 23.0 mph N/A   Mostly Cloudy
2:14 PM 69.1 °F 40.5 °F 35% 30.10 in 10.0 mi SE 13.8 mph - N/A   Mostly Cloudy
2:35 PM 69.1 °F 41.9 °F 37% 30.09 in 10.0 mi ESE 15.0 mph 18.4 mph N/A   Mostly Cloudy
3:14 PM 71.6 °F 43.0 °F 36% 30.08 in 10.0 mi ESE 11.5 mph 17.3 mph N/A   Scattered Clouds
3:35 PM 72.5 °F 40.8 °F 32% 30.08 in 10.0 mi ESE 13.8 mph 21.9 mph N/A   Scattered Clouds
3:55 PM 71.8 °F 40.1 °F 32% 30.07 in 10.0 mi ESE 13.8 mph 17.3 mph N/A   Mostly Cloudy
4:15 PM 72.5 °F 41.7 °F 33% 30.06 in 10.0 mi SE 11.5 mph - N/A   Mostly Cloudy
4:35 PM 72.1 °F 41.7 °F 33% 30.06 in 10.0 mi ESE 13.8 mph - N/A   Mostly Cloudy
4:55 PM 72.9 °F 43.0 °F 34% 30.05 in 10.0 mi ESE 16.1 mph 19.6 mph N/A   Scattered Clouds
5:15 PM 74.1 °F 44.1 °F 34% 30.05 in 10.0 mi ESE 11.5 mph 17.3 mph N/A   Scattered Clouds
5:35 PM 74.3 °F 44.1 °F 34% 30.05 in 10.0 mi East 12.7 mph 16.1 mph N/A   Clear
5:54 PM 74.3 °F 44.6 °F 35% 30.04 in 10.0 mi East 11.5 mph 16.1 mph N/A   Scattered Clouds
6:15 PM 72.7 °F 43.9 °F 36% 30.04 in 10.0 mi ESE 12.7 mph - N/A   Clear
6:35 PM 72.7 °F 45.1 °F 37% 30.04 in 10.0 mi ESE 9.2 mph 17.3 mph N/A   Clear
6:54 PM 71.6 °F 43.9 °F 37% 30.04 in 10.0 mi ESE 10.4 mph - N/A   Clear
7:15 PM 71.6 °F 45.1 °F 39% 30.03 in 10.0 mi ESE 11.5 mph - N/A   Clear
7:35 PM 71.6 °F 46.2 °F 40% 30.03 in 10.0 mi ESE 11.5 mph - N/A   Clear
7:54 PM 71.6 °F 47.1 °F 42% 30.03 in 10.0 mi East 10.4 mph - N/A   Clear
8:15 PM 69.1 °F 44.8 °F 42% 30.03 in 10.0 mi ESE 11.5 mph - N/A   Clear
8:35 PM 66.6 °F 43.7 °F 44% 30.03 in 10.0 mi East 9.2 mph - N/A   Clear
8:54 PM 64.9 °F 43.0 °F 45% 30.03 in 10.0 mi East 8.1 mph - N/A   Clear
9:15 PM 63.9 °F 43.7 °F 48% 30.04 in 10.0 mi East 6.9 mph - N/A   Clear
9:35 PM 62.8 °F 43.2 °F 49% 30.03 in 10.0 mi ESE 9.2 mph - N/A   Clear
9:54 PM 61.9 °F 42.4 °F 49% 30.04 in 10.0 mi East 6.9 mph - N/A   Clear
10:15 PM 61.7 °F 41.9 °F 48% 30.04 in 10.0 mi East 10.4 mph - N/A   Clear
10:35 PM 61.7 °F 41.9 °F 48% 30.03 in 10.0 mi East 9.2 mph - N/A   Clear
10:55 PM 61.7 °F 42.1 °F 49% 30.04 in 10.0 mi East 6.9 mph - N/A   Scattered Clouds
11:15 PM 61.5 °F 42.8 °F 50% 30.04 in 10.0 mi ESE 8.1 mph - N/A   Clear
11:35 PM 59.7 °F 41.9 °F 52% 30.03 in 10.0 mi ESE 3.5 mph - N/A   Scattered Clouds